星链-31120 (STARLINK-31120 )

导读 | 豆包AI

STARLINK-31120是美国SpaceX星链互联网卫星星座的成员,于2024年1月14日发射入轨。星链星座通过大规模低轨卫星组网,为全球提供高速互联网接入服务,尤其服务偏远地区和移动场景,这颗卫星承担着补充星座容量、提升服务覆盖与稳定性的角色,延续了星链持续扩容部署的节奏。

基本信息
目录编号:
58778
目录名称:
STARLINK-31120
国际标识:
2024-011P
轨道中心:
EARTH
卫星名称:
星链-31120
卫星全名:
星链-31120 (STARLINK-31120 )
卫星状态:
在轨 (已飞行837 天)
发射日期:
2024-01-14 UTC
国别 :
美国 (US)
星等 :
--
轨道信息
数据来源 国际轨道数据 AOE轨道数据
星历时间 2026-04-30T13:05:50+0800
10小时前
查看轨道信息
2026-04-26T07:00:00+0800
4天前
查看轨道信息
半长轴 6853.376km 6853.377km
偏心率 0.0001061 0.000163
轨道倾角 53.160° 53.160°
近地点辐角 95.530° 59.185°
升交点赤经 134.699° 154.462°
平近点角 264.582° 253.574°
近地点 474.511km 474.122km
远地点 475.967km 476.358km
周期 94.106分钟 94.106分钟
每日圈数 15.301923 15.301919
详细信息
固有亮度:
5
最大亮度:
0.3
卫星平台:
Starlink v2.0 mini
覆盖范围:
全球
运营商:
太空探索技术公司
运营商所在国:
美国
制造商(研发单位):
太空探索技术公司
制造商所在国:
美国
使用方式:
暂无
卫星简介
星链(Starlink)计划是由太空探索技术公司(SpaceX)提出的一个巨型低轨卫星互联网星座项目,计划在2019年至2024年间在太空搭建由约1.2万颗卫星组成的“星链”网络,其中1584颗将部署在地球上空550千米处的近地轨道,并从2020年开始工作。该卫星仍在工作。
2D轨道图
3D轨道图
轨道高度分析图
轨道倾角分析图
轨道综合分析图
查看轨道综合分析图